Terminal Aerodrome Forecast
Issued by NWS Tampa Bay Area, FL

Home | Current Version | Previous Version | Text Only | Print | Product List | Glossary On
Versions: 1 2 3 4 5 6 7 8 9 10 11 12 13 14 15 16 17 18 19 20 21 22 23 24 25
000
FTUS42 KTBW 291200 AAA
TAFTPA
TAF AMD
KTPA 291230Z 2913/3012 26010KT P6SM VCTS SCT025CB SCT100 BKN250
      TEMPO 2914/2917 4SM SHRA BKN025
     FM291700 26013KT P6SM VCTS SCT030CB BKN100
     FM292200 26010KT P6SM SCT030 BKN100 BKN250
     FM300100 25008KT P6SM SCT025 SCT100 BKN250=

USA.gov is the U.S. government's official web portal to all federal, state and local government web resources and services.